When you browse on this site, cookies collect data to enhance your experience and personalize the content and advertising you see.
Visit our Privacy Policy to learn more. By continuing to use the site, you agree to this use of cookies and data.
  • In Österreich
  • Länderverzeichnis
  • Für 7 Tage
  • Wassertemperatur
  • Satellitenkarten
  • Wetterkarte
  • News
  • Widgets
  • user-avatar
    Anmelden

    Stündliche Wetter Tracy

    Heute, 21 Februar, Donnerstag

    Zeit Temperatur Niederschläge Wind Luftdruck Luftfeuchtigkeit
    00:00 +6°C° 0.1 mm 2 m/S 753 mmHg 83%
    01:00 +6°C° 0.1 mm 1 m/S 753 mmHg 83%
    02:00 +5°C° 0 mm 2 m/S 753 mmHg 85%
    03:00 +5°C° 0 mm 2 m/S 753 mmHg 87%
    04:00 +5°C° 0 mm 2 m/S 753 mmHg 88%
    05:00 +4°C° 0 mm 2 m/S 753 mmHg 89%
    06:00 +3°C° 0 mm 3 m/S 753 mmHg 90%
    07:00 +2°C° 0 mm 3 m/S 753 mmHg 90%
    08:00 +3°C° 0 mm 4 m/S 753 mmHg 83%
    09:00 +4°C° 0 mm 4 m/S 753 mmHg 76%
    10:00 +6°C° 0 mm 5 m/S 753 mmHg 68%
    11:00 +7°C° 0 mm 5 m/S 753 mmHg 63%
    12:00 +8°C° 0 mm 6 m/S 753 mmHg 58%
    13:00 +10°C° 0 mm 6 m/S 753 mmHg 53%
    14:00 +10°C° 0 mm 7 m/S 753 mmHg 53%
    15:00 +10°C° 0 mm 7 m/S 753 mmHg 52%
    16:00 +10°C° 0 mm 7 m/S 753 mmHg 51%
    17:00 +9°C° 0 mm 7 m/S 754 mmHg 52%
    18:00 +8°C° 0 mm 6 m/S 755 mmHg 53%
    19:00 +6°C° 0 mm 5 m/S 755 mmHg 54%
    20:00 +6°C° 0 mm 5 m/S 756 mmHg 55%
    21:00 +5°C° 0 mm 5 m/S 756 mmHg 56%
    22:00 +3°C° 0 mm 5 m/S 757 mmHg 57%
    23:00 +3°C° 0 mm 5 m/S 758 mmHg 57%

    Morgen, 22 Februar, Freitag

    Zeit Temperatur Niederschläge Wind Luftdruck Luftfeuchtigkeit
    00:00 +3°C° 0 mm 4 m/S 758 mmHg 58%
    01:00 +1°C° 0 mm 4 m/S 759 mmHg 58%
    02:00 +1°C° 0 mm 4 m/S 759 mmHg 59%
    03:00 +1°C° 0 mm 3 m/S 760 mmHg 60%
    04:00 +1°C° 0 mm 3 m/S 760 mmHg 61%
    05:00 +1°C° 0 mm 3 m/S 761 mmHg 61%
    06:00 +1°C° 0 mm 2 m/S 761 mmHg 62%
    07:00 +1°C° 0 mm 2 m/S 762 mmHg 62%
    08:00 +3°C° 0 mm 2 m/S 762 mmHg 57%
    09:00 +5°C° 0 mm 2 m/S 762 mmHg 52%
    10:00 +7°C° 0 mm 2 m/S 763 mmHg 47%
    11:00 +8°C° 0 mm 2 m/S 763 mmHg 45%
    12:00 +9°C° 0 mm 2 m/S 762 mmHg 42%
    13:00 +12°C° 0 mm 2 m/S 762 mmHg 39%
    14:00 +12°C° 0 mm 2 m/S 762 mmHg 40%
    15:00 +12°C° 0 mm 2 m/S 762 mmHg 40%
    16:00 +12°C° 0 mm 1 m/S 762 mmHg 41%
    17:00 +11°C° 0 mm 1 m/S 763 mmHg 45%
    18:00 +9°C° 0 mm 1 m/S 764 mmHg 50%
    19:00 +7°C° 0 mm 1 m/S 764 mmHg 54%
    20:00 +6°C° 0 mm 1 m/S 765 mmHg 55%
    21:00 +6°C° 0 mm 1 m/S 765 mmHg 55%
    22:00 +6°C° 0 mm 1 m/S 766 mmHg 56%
    23:00 +5°C° 0 mm 1 m/S 766 mmHg 56%

    übermorgen, 23 Februar, Samstag

    Zeit Temperatur Niederschläge Wind Luftdruck Luftfeuchtigkeit
    00:00 +5°C° 0 mm 1 m/S 766 mmHg 57%
    01:00 +5°C° 0 mm 1 m/S 767 mmHg 58%
    02:00 +5°C° 0 mm 1 m/S 767 mmHg 59%
    03:00 +3°C° 0 mm 2 m/S 767 mmHg 61%
    04:00 +3°C° 0 mm 2 m/S 767 mmHg 62%
    05:00 +3°C° 0 mm 2 m/S 767 mmHg 63%
    06:00 +4°C° 0 mm 1 m/S 767 mmHg 63%
    07:00 +4°C° 0 mm 1 m/S 768 mmHg 64%
    08:00 +6°C° 0 mm 1 m/S 768 mmHg 59%
    09:00 +9°C° 0 mm 1 m/S 768 mmHg 53%
    10:00 +11°C° 0 mm 1 m/S 768 mmHg 48%
    11:00 +12°C° 0 mm 1 m/S 767 mmHg 46%
    12:00 +14°C° 0 mm 1 m/S 767 mmHg 44%
    13:00 +15°C° 0 mm 1 m/S 767 mmHg 41%
    14:00 +15°C° 0 mm 1 m/S 766 mmHg 43%
    15:00 +15°C° 0 mm 1 m/S 766 mmHg 45%
    16:00 +15°C° 0 mm 1 m/S 766 mmHg 46%
    17:00 +13°C° 0 mm 1 m/S 766 mmHg 53%
    18:00 +10°C° 0 mm 0 m/S 767 mmHg 59%
    19:00 +8°C° 0 mm 0 m/S 767 mmHg 65%
    20:00 +8°C° 0 mm 0 m/S 767 mmHg 67%
    21:00 +7°C° 0 mm 0 m/S 767 mmHg 69%
    22:00 +8°C° 0 mm 1 m/S 768 mmHg 71%
    23:00 +8°C° 0 mm 1 m/S 768 mmHg 74%

    24 Februar, Sonntag

    Zeit Temperatur Niederschläge Wind Luftdruck Luftfeuchtigkeit
    00:00 +7°C° 0 mm 1 m/S 767 mmHg 76%
    01:00 +7°C° 0 mm 1 m/S 767 mmHg 79%
    02:00 +7°C° 0 mm 1 m/S 767 mmHg 79%
    03:00 +7°C° 0 mm 1 m/S 767 mmHg 80%
    04:00 +7°C° 0 mm 1 m/S 767 mmHg 81%
    05:00 +7°C° 0 mm 1 m/S 767 mmHg 81%
    06:00 +7°C° 0 mm 1 m/S 766 mmHg 81%
    07:00 +7°C° 0 mm 1 m/S 766 mmHg 81%
    08:00 +9°C° 0 mm 1 m/S 766 mmHg 75%
    09:00 +11°C° 0 mm 1 m/S 766 mmHg 68%
    10:00 +13°C° 0 mm 1 m/S 766 mmHg 61%
    11:00 +14°C° 0 mm 1 m/S 765 mmHg 58%
    12:00 +16°C° 0 mm 1 m/S 764 mmHg 54%
    13:00 +18°C° 0 mm 1 m/S 764 mmHg 51%
    14:00 +18°C° 0 mm 1 m/S 764 mmHg 52%
    15:00 +18°C° 0 mm 1 m/S 763 mmHg 53%
    16:00 +18°C° 0 mm 1 m/S 763 mmHg 54%
    17:00 +15°C° 0 mm 1 m/S 763 mmHg 62%
    18:00 +13°C° 0 mm 1 m/S 763 mmHg 69%
    19:00 +10°C° 0 mm 2 m/S 763 mmHg 76%
    20:00 +11°C° 0 mm 1 m/S 763 mmHg 78%
    21:00 +10°C° 0 mm 1 m/S 763 mmHg 80%
    22:00 +10°C° 0 mm 1 m/S 764 mmHg 82%
    23:00 +10°C° 0 mm 1 m/S 763 mmHg 83%

    25 Februar, Montag

    Zeit Temperatur Niederschläge Wind Luftdruck Luftfeuchtigkeit
    00:00 +10°C° 0 mm 1 m/S 763 mmHg 84%
    01:00 +10°C° 0 mm 1 m/S 763 mmHg 84%
    02:00 +10°C° 0.5 mm 1 m/S 763 mmHg 86%
    03:00 +8°C° 0.5 mm 0 m/S 762 mmHg 88%
    04:00 +8°C° 0.5 mm 0 m/S 762 mmHg 89%
    05:00 +9°C° 0.2 mm 1 m/S 762 mmHg 89%
    06:00 +8°C° 0.2 mm 2 m/S 762 mmHg 88%
    07:00 +8°C° 0.2 mm 2 m/S 761 mmHg 87%
    08:00 +9°C° 0.1 mm 3 m/S 761 mmHg 82%
    09:00 +10°C° 0.1 mm 3 m/S 761 mmHg 76%
    10:00 +12°C° 0.1 mm 3 m/S 761 mmHg 71%
    11:00 +11°C° 0.6 mm 3 m/S 761 mmHg 75%
    12:00 +11°C° 0.6 mm 4 m/S 760 mmHg 78%
    13:00 +11°C° 0.6 mm 4 m/S 760 mmHg 82%
    14:00 +11°C° 0.6 mm 4 m/S 760 mmHg 83%
    15:00 +12°C° 0.6 mm 5 m/S 759 mmHg 83%
    16:00 +12°C° 0.6 mm 5 m/S 759 mmHg 84%
    17:00 +11°C° 0.8 mm 4 m/S 759 mmHg 86%
    18:00 +11°C° 0.8 mm 4 m/S 759 mmHg 88%
    19:00 +11°C° 0.8 mm 4 m/S 759 mmHg 91%
    20:00 +11°C° 0.7 mm 3 m/S 759 mmHg 91%
    21:00 +11°C° 0.7 mm 3 m/S 760 mmHg 91%
    22:00 +11°C° 0.7 mm 3 m/S 760 mmHg 91%
    23:00 +11°C° 0.4 mm 3 m/S 760 mmHg 92%

    26 Februar, Dienstag

    Zeit Temperatur Niederschläge Wind Luftdruck Luftfeuchtigkeit
    00:00 +11°C° 0.4 mm 3 m/S 760 mmHg 92%
    01:00 +11°C° 0.4 mm 3 m/S 760 mmHg 93%
    02:00 +11°C° 0.3 mm 3 m/S 760 mmHg 93%
    03:00 +10°C° 0.3 mm 3 m/S 760 mmHg 94%
    04:00 +10°C° 0.3 mm 3 m/S 760 mmHg 94%
    05:00 +10°C° 0.5 mm 3 m/S 760 mmHg 94%
    06:00 +10°C° 0.5 mm 4 m/S 761 mmHg 95%
    07:00 +10°C° 0.5 mm 4 m/S 761 mmHg 95%
    08:00 +11°C° 0.9 mm 4 m/S 761 mmHg 93%
    09:00 +11°C° 0.9 mm 4 m/S 762 mmHg 91%
    10:00 +12°C° 0.9 mm 5 m/S 762 mmHg 89%
    11:00 +13°C° 0.3 mm 4 m/S 762 mmHg 88%
    12:00 +13°C° 0.3 mm 4 m/S 762 mmHg 86%
    13:00 +14°C° 0.3 mm 4 m/S 762 mmHg 84%
    14:00 +13°C° 1.4 mm 4 m/S 762 mmHg 87%
    15:00 +13°C° 1.4 mm 4 m/S 762 mmHg 90%
    16:00 +12°C° 1.4 mm 3 m/S 762 mmHg 93%
    17:00 +12°C° 0.7 mm 3 m/S 762 mmHg 93%
    18:00 +12°C° 0.7 mm 3 m/S 762 mmHg 93%
    19:00 +13°C° 0.7 mm 2 m/S 762 mmHg 94%
    20:00 +13°C° 0.4 mm 2 m/S 762 mmHg 94%
    21:00 +13°C° 0.4 mm 2 m/S 763 mmHg 93%
    22:00 +13°C° 0.4 mm 2 m/S 763 mmHg 93%
    23:00 +13°C° 0.3 mm 2 m/S 763 mmHg 93%
    Mehr zeigen